Regional Weather Roundup
Issued by NWS

Home | Current Version | Previous Version | Text Only | Print | Product List | Glossary Off
Versions: 1 2 3 4 5 6 7 8 9 10 11 12 13 14 15 16 17 18 19 20 21 22 23 24 25 26 27 28 29 30 31 32 33 34 35 36 37 38 39 40 41 42 43 44 45 46 47 48 49 50

000
ASUS43 KLOT 011012
RWRIL

ILLINOIS REGIONAL WEATHER ROUNDUP
NATIONAL WEATHER SERVICE CHICAGO/ROMEOVILLE IL
500 AM CDT SAT AUG 01 2015

NOTE: "FAIR" INDICATES FEW OR NO CLOUDS BELOW 12,000 FEET WITH NO
SIGNIFICANT WEATHER AND/OR OBSTRUCTIONS TO VISIBILITY.

* THESE STATIONS ARE NOT UNDER NWS QUALITY CONTROL. THEY ALSO MAY NOT
  REPORT WEATHER SUCH AS PRECIPITATION OR FOG.

ILZ001-002-007-009-015-016-024-011100-
NORTHWEST ILLINOIS

CITY           SKY/WX    TMP DP  RH WIND       PRES   REMARKS
MOLINE         CLEAR     60  57  89 CALM      30.02F
STERLING*      CLEAR     61  57  88 CALM      29.99F
SAVANNA*       CLEAR     58  56  92 SE3       30.01S
$$

ILZ003-004-008-010-011-017-018-011100-
NORTH CENTRAL ILLINOIS

CITY           SKY/WX    TMP DP  RH WIND       PRES   REMARKS
ROCKFORD       CLEAR     59  53  80 S3        30.01F
FREEPORT*      CLEAR     60  55  85 W5        30.02F
ROCHELLE*      CLEAR     55  54  97 SW3       30.02S
DE KALB*       CLEAR     61  55  82 W5        30.01F
PERU*          CLEAR     63  57  82 NW9       30.03S
$$

ILZ005-006-012>014-019>023-011100-
NORTHEAST ILLINOIS

CITY           SKY/WX    TMP DP  RH WIND       PRES   REMARKS
CHICAGO-OHARE  CLEAR     65  53  65 W7        29.98S
CHICAGO-MIDWAY CLEAR     68  52  56 W7        29.98S
AURORA         CLEAR     56  52  86 W3        30.01S
LANSING*       CLEAR     62  53  74 W3        29.99S
JOLIET*        CLEAR     57  56  95 CALM      30.00S
WAUKEGAN       CLEAR     63  53  70 CALM      29.97S
DUPAGE AIRPORT CLEAR     59  52  77 CALM      29.99S
KANKAKEE*      CLEAR     61  58  90 W3        30.02S
WHEELING       CLEAR     65  52  62 CALM      29.99S
MORRIS*        CLEAR     58  56  91 W5        30.00S
ROMEOVILLE*    CLEAR     60  54  78 W6        30.00S
NORTHERLY ISL    N/A     70  52  52 W9          N/A
$$

LMZ740>746-011100-
SOUTHERN LAKE MICHIGAN

STATION/POSITION SKY/WX   TEMP    WIND        PRES    VSBY  WAVE
                          AIR SEA DIR/SP/G                  HT/PER
                          (F)     (DEG/KT/KT) (MB)    (MI)  (FT/S)
HARRISON CRIB              71     280/ 12/ 15   N/A
BURNHAM HARBOR             70     270/  6/ 11   N/A
CALUMET HARBOR             69     250/  3/  5   N/A
BURNS HARBOR               73     280/  9/ 11 1015.6S
MICHIGAN CITY              73     280/ 14/ 16   N/A
MICHIGAN CITY 6N           73 74  300/ 12/ 16   N/A           3/ 4
ST. JOSEPH                 72 74  330/ 12/ 14   N/A           3/ 4
$$

ILZ025>027-034>036-040-047-049-050-058-095>099-011100-
WEST-CENTRAL ILLINOIS

CITY           SKY/WX    TMP DP  RH WIND       PRES   REMARKS
QUINCY         MOCLDY    68  65  90 S3        30.04F
GALESBURG*     CLEAR     58  56  93 CALM      30.04S
MACOMB*        CLEAR     60  58  93 NW3       30.06F
JACKSONVILLE*  PTCLDY    67  65  94 CALM      30.04F
PITTSFIELD*    MOCLDY    70  64  82 CALM      30.06F
$$

ILZ028>032-037-038-041>044-048-051>054-059>061-011100-
CENTRAL ILLINOIS

CITY           SKY/WX    TMP DP  RH WIND       PRES   REMARKS
PONTIAC        CLEAR     59  58  97 W3        30.03S
BLOOMINGTON    CLEAR     65  58  78 W6        30.05S
DECATUR        CLEAR     68  56  65 N9        30.04R
PEORIA         CLEAR     66  59  78 N3        30.03F
LACON*         CLEAR     60  57  91 CALM      30.02S
LINCOLN*       CLEAR     62  58  87 CALM      30.04S
SPRINGFIELD    MOCLDY    67  61  81 N7        30.04S
TAYLORVILLE    CLEAR     64  63  94 N3        30.04R
$$

ILZ033-039-045-046-055>057-062-063-011100-
EAST-CENTRAL ILLINOIS

CITY           SKY/WX    TMP DP  RH WIND       PRES   REMARKS
CHAMPAIGN      CLEAR     59  57  93 W3        30.03S
DANVILLE*      CLEAR     60  58  91 NW6       29.99S
RANTOUL*       CLEAR     63  59  87 W7        30.03R
MATTOON        CLEAR     64  56  75 NW6       30.03S
PARIS*         CLEAR     58  57  94 CALM      30.03S
$$

ILZ079-100>102-011100-
SOUTHWEST ILLINOIS

CITY           SKY/WX    TMP DP  RH WIND       PRES   REMARKS
ALTON          CLEAR     66  65  96 CALM      30.03S
BELLEVILLE     CLEAR     70  69  99 CALM      30.01S
CAHOKIA*       CLEAR     69  65  86 CALM      30.02S
SPARTA*        CLEAR     70  66  88 CALM      30.03F
$$

ILZ064>066-069>071-074>076-080>082-084>086-088>090-092>094-011100-
SOUTH-CENTRAL ILLINOIS

CITY           SKY/WX    TMP DP  RH WIND       PRES   REMARKS
CARBONDALE     CLEAR     69  67  93 CALM      30.02S
CAIRO*         CLEAR     68  68 100 CALM      30.01F FOG
EFFINGHAM*     CLEAR     70  63  79 CALM      30.04S
MARION         CLEAR     68  66  94 NE3       30.03R
MT. VERNON     CLEAR     64  59  82 CALM      30.03S
CENTRALIA*     CLEAR     65  63  91 CALM      30.02F
SALEM*         CLEAR     67  65  91 CALM      30.03S
METROPOLIS*    CLEAR     68  68 100 CALM      30.01F
$$

ILZ067-068-072-073-078-083-087-091-011100-
SOUTHEAST ILLINOIS

CITY           SKY/WX    TMP DP  RH WIND       PRES   REMARKS
LAWRENCEVILLE  CLEAR     70  63  78 NW6       30.01S
FLORA*         CLEAR     70  65  86 NW3       30.03S
FAIRFIELD*     CLEAR     67  66  99 CALM      30.01S
HARRISBURG*    CLEAR     66  66 100 CALM      30.03R
ROBINSON*      CLEAR     66  62  85 N5        30.03S
CARMI*         CLEAR     67  63  85 CALM      30.00F
$$

ABBREVIATIONS USED IN REMARKS
   TC - TEMPERATURE IN CELSIUS
  WCI - WIND CHILL INDEX
   HX - HEAT INDEX
  VSB - VISIBILITY
$$



USA.gov is the U.S. government's official web portal to all federal, state and local government web resources and services.